EA5LR-10 Weather Reports


time (UTC)temp
F
wind
direction
speed
knots
gust
knots
rain 1hr
in
rain 24hr
in
rain mn
in
humidity
%
barometer
mb
20260502224040 65 70 5.2 7.0 0.00 5.91 8.26 89 1017.7
20260502223540 65 84 4.3 7.8 0.00 5.91 8.26 89 1017.9
20260502223040 65 78 5.2 7.0 0.00 5.91 8.26 88 1017.9
20260502222540 65 77 1.7 2.6 0.00 5.91 8.26 88 1017.8
20260502222041 65 77 2.6 3.5 0.00 5.91 8.26 88 1017.8
20260502221040 64 69 0.9 1.7 0.00 5.91 8.26 89 1017.8
20260502220540 65 59 2.6 4.3 0.00 5.91 8.26 90 1017.8
20260502220040 65 53 2.6 3.5 0.00 5.91 8.26 90 1017.9
20260502215540 65 21 0.9 1.7 0.00 5.91 8.26 90 1018.0
20260502215040 65 72 0.9 1.7 0.00 5.91 8.26 90 1018.0
20260502214540 65 71 3.5 7.0 0.00 5.91 8.26 89 1018.2
20260502214040 65 65 2.6 5.2 0.00 5.91 8.26 89 1018.2
20260502213540 65 64 0.9 1.7 0.00 5.91 8.26 89 1018.3
20260502213040 65 92 0.9 1.7 0.00 5.91 8.26 89 1018.4
20260502212540 64 85 1.7 3.5 0.00 5.91 8.26 89 1018.3
20260502212040 64 69 1.7 2.6 0.00 5.91 8.26 89 1018.3
20260502211540 64 53 1.7 2.6 0.00 5.91 8.26 89 1018.3
20260502211040 64 53 1.7 2.6 0.00 5.91 8.26 89 1018.4
20260502210540 64 53 1.7 2.6 0.00 5.91 8.26 89 1018.3
20260502210040 64 79 3.5 4.3 0.00 5.91 8.26 89 1018.3
20260502205540 64 69 2.6 3.5 0.00 5.91 8.26 89 1018.4
20260502205040 64 77 0.9 1.7 0.00 5.91 8.26 89 1018.1
20260502204540 64 87 1.7 2.6 0.00 5.91 8.26 89 1018.3
20260502204039 64 87 1.7 2.6 0.00 5.91 8.26 89 1017.9
20260502203542 64 87 1.7 2.6 0.00 5.91 8.26 89 1017.9
20260502202539 64 80 2.6 7.0 0.00 5.91 8.26 89 1017.9
20260502202039 64 90 3.5 4.3 0.00 5.91 8.26 89 1017.8
20260502201539 64 67 1.7 2.6 0.00 5.91 8.26 89 1017.8
20260502201039 64 85 4.3 7.0 0.00 5.91 8.26 89 1017.9
20260502200539 64 89 2.6 4.3 0.00 5.91 8.26 89 1018.0
20260502200039 65 71 0.9 2.6 0.00 5.91 8.26 89 1017.7
20260502195539 65 66 0.0 0.9 0.00 5.91 8.26 89 1017.6
20260502195039 65 89 1.7 2.6 0.00 5.91 8.26 89 1017.8
20260502194539 65 92 0.0 0.9 0.00 5.91 8.26 89 1017.7
20260502194039 65 71 1.7 3.5 0.00 5.91 8.26 89 1017.7
20260502193539 65 71 1.7 3.5 0.00 5.91 8.26 89 1017.8
20260502193039 65 10 4.3 5.2 0.00 5.91 8.26 89 1017.7
20260502192539 65 66 0.9 1.7 0.00 5.91 8.26 89 1017.9
20260502192039 65 52 2.6 4.3 0.00 5.91 8.26 89 1017.7
20260502191539 65 53 1.7 2.6 0.00 5.91 8.26 89 1017.8
20260502191038 65 65 2.6 3.5 0.00 5.91 8.26 90 1017.9
20260502190538 65 78 0.9 2.6 0.00 5.91 8.26 90 1017.8
20260502190038 65 51 4.3 5.2 0.00 5.91 8.26 90 1018.0
20260502185538 65 51 4.3 5.2 0.00 5.91 8.26 90 1017.7
20260502185038 65 78 6.1 8.7 0.00 5.91 8.26 90 1017.7
20260502184538 66 77 3.5 3.5 0.00 5.91 8.26 90 1017.8
20260502184038 66 68 0.9 1.7 0.00 5.91 8.26 90 1017.6
20260502183539 65 60 2.6 3.5 0.00 5.91 8.26 90 1017.6
20260502182538 65 75 5.2 7.8 0.00 5.91 8.26 90 1017.7
20260502182038 65 11 3.5 4.3 0.00 5.91 8.26 90 1017.5
20260502181538 66 79 5.2 7.0 0.00 5.91 8.26 89 1017.6
20260502181038 66 46 0.0 0.9 0.00 5.91 8.26 89 1017.4
20260502180538 66 82 5.2 7.8 0.00 5.91 8.26 89 1017.8
20260502164229 67 81 1.7 3.5 0.00 5.91 8.26 86 1018.5
20260502163531 67 109 0.9 2.6 0.00 5.91 8.26 86 1018.3
20260502163032 67 105 0.9 2.6 0.00 5.91 8.26 87 1018.5
20260502162706 67 78 1.7 1.7 0.00 5.91 8.26 88 1018.5
20260502162206 66 86 3.5 4.3 0.00 5.91 8.26 88 1018.4
20260502161706 67 82 9.6 11.3 0.00 5.91 8.26 87 1018.3
20260502161206 67 114 0.9 3.5 0.00 5.91 8.26 86 1018.7
20260502160706 68 61 3.5 5.2 0.00 5.91 8.26 86 1018.8
20260502160206 67 100 2.6 4.3 0.00 5.91 8.26 86 1018.9
20260502152152 67 68 1.7 3.5 0.00 5.91 8.26 88 1019.1
20260502151652 67 62 4.3 7.0 0.00 5.91 8.26 88 1019.3
20260502151152 67 63 2.6 3.5 0.00 5.91 8.26 88 1019.5
20260502150652 67 34 1.7 2.6 0.00 5.91 8.26 87 1019.4
20260502150154 67 66 1.7 3.5 0.00 5.91 8.26 87 1019.4
20260502130457 67 113 5.2 7.8 0.00 5.91 8.26 87 1020.6
20260502123457 68 94 1.7 5.2 0.00 5.91 8.26 86 1020.7
20260502122957 69 67 0.9 1.7 0.00 5.91 8.26 85 1020.5
20260502122457 68 102 5.2 5.2 0.00 5.91 8.26 86 1020.6
20260502121957 68 81 5.2 7.0 0.00 5.91 8.26 85 1020.2
20260502121457 68 80 5.2 7.0 0.00 5.91 8.26 86 1020.5
20260502120957 68 69 6.1 7.8 0.00 5.91 8.26 85 1020.9
20260502120457 68 78 0.9 2.6 0.00 5.91 8.26 85 1021.0
20260502115456 68 76 1.7 3.5 0.00 5.91 8.26 86 1021.2
20260502114956 68 101 2.6 3.5 0.00 5.91 8.26 85 1021.3
20260502114456 68 64 2.6 3.5 0.00 5.91 8.26 86 1021.3
20260502113956 68 75 2.6 3.5 0.00 5.91 8.26 86 1021.2
20260502113456 68 58 1.7 2.6 0.00 5.91 8.26 86 1020.9
20260502113425 68 73 4.3 7.0 0.00 5.91 8.26 86 1020.9
20260502112925 68 109 1.7 3.5 0.00 5.91 8.26 86 1021.1
20260502112425 68 70 0.9 1.7 0.00 5.91 8.26 85 1021.0
20260502111925 69 70 4.3 7.0 0.00 5.91 8.26 83 1021.2
20260502111425 69 124 4.3 5.2 0.00 5.91 8.26 84 1021.2
20260502110425 69 99 2.6 3.5 0.00 5.91 8.26 84 1021.2
20260502105925 68 100 0.9 1.7 0.00 5.91 8.26 85 1021.4
20260502105425 68 71 0.9 1.7 0.00 5.91 8.26 85 1021.1
20260502104925 68 102 0.9 1.7 0.00 5.91 8.26 86 1021.4
20260502104425 68 68 0.9 1.7 0.00 5.91 8.26 87 1021.5
20260502103925 68 69 1.7 3.5 0.00 5.91 8.26 87 1021.6
20260502103425 68 111 2.6 4.3 0.00 5.91 8.26 87 1021.7
20260502102925 67 68 4.3 5.2 0.00 5.91 8.26 87 1021.7
20260502102425 68 68 2.6 4.3 0.00 5.91 8.26 86 1021.8
20260502101925 68 8 0.9 2.6 0.00 5.91 8.26 86 1021.8
20260502101425 67 86 0.9 1.7 0.00 5.91 8.26 87 1021.8
20260502100925 67 31 2.6 4.3 0.00 5.91 8.26 87 1021.9
20260502100425 67 55 1.7 2.6 0.00 5.91 8.26 88 1021.8
20260502091104 67 82 6.1 7.0 0.00 5.91 8.26 88 1022.0
20260502090604 66 89 2.6 3.5 0.00 5.91 8.26 88 1022.1
20260502090104 66 80 6.1 7.8 0.00 5.91 8.26 88 1022.1
20260502071155 66 48 1.7 2.6 0.00 5.91 8.26 86 1021.9
20260502070655 66 66 0.0 0.9 0.00 5.91 8.26 86 1021.8
20260502070155 66 94 0.0 0.9 0.00 5.91 8.26 86 1021.9
20260502065655 66 69 2.6 5.2 0.00 5.91 8.26 86 1021.9
20260502065155 66 82 5.2 7.0 0.00 5.91 8.26 85 1021.9
20260502064655 66 73 1.7 3.5 0.00 5.91 8.26 85 1021.8
20260502064155 66 81 0.9 1.7 0.00 5.91 8.26 85 1021.9
20260502063655 66 66 1.7 2.6 0.00 5.91 8.26 85 1021.8
20260502063155 66 71 1.7 2.6 0.00 5.91 8.26 85 1021.5
20260502062655 66 89 2.6 3.5 0.00 5.91 8.26 85 1021.9
20260502062155 66 80 2.6 2.6 0.00 5.91 8.26 85 1021.9
20260502061655 66 77 1.7 3.5 0.00 5.91 8.26 84 1021.7
20260502061155 66 71 0.9 1.7 0.00 5.91 8.26 84 1022.0
20260502060655 66 71 0.0 0.9 0.00 5.91 8.26 84 1021.6
20260502060155 66 70 0.0 0.9 0.00 5.91 8.26 84 1021.6
20260502055656 65 83 0.9 2.6 0.00 5.91 8.26 85 1021.6
20260502054655 65 67 1.7 1.7 0.00 5.91 8.26 86 1021.7
20260502054155 65 74 0.0 0.0 0.00 5.91 8.26 86 1021.6
20260502053655 66 83 2.6 3.5 0.00 5.91 8.26 86 1021.6
20260502053155 65 51 0.0 0.0 0.00 5.91 8.26 86 1021.6
20260502052655 65 61 0.0 0.9 0.00 5.91 8.26 86 1021.6
20260502052155 65 63 0.9 1.7 0.00 5.91 8.26 87 1021.6
20260502051655 65 82 0.0 0.0 0.00 5.91 8.26 87 1021.4
20260502051155 65 74 0.0 0.9 0.00 5.91 8.26 87 1021.7
20260502050655 65 70 0.9 2.6 0.00 5.91 8.26 87 1021.7
20260502050155 65 43 0.9 1.7 0.00 5.91 8.26 87 1021.6
20260502045655 65 30 0.0 0.0 0.00 5.91 8.26 87 1021.5
20260502045155 65 33 0.9 0.9 0.00 5.91 8.26 87 1021.8
20260502044655 65 30 0.9 1.7 0.00 5.91 8.26 87 1021.7
20260502044155 65 29 0.9 0.9 0.00 5.91 8.26 87 1021.7
20260502043655 65 32 0.0 0.9 0.00 5.91 8.26 87 1021.8
20260502043155 65 48 0.0 0.9 0.00 5.91 8.26 88 1021.6
20260502042655 65 64 0.9 1.7 0.00 5.91 8.26 88 1021.3
20260502042155 65 65 0.9 1.7 0.00 5.91 8.26 88 1021.4
20260502041655 65 42 0.9 1.7 0.00 5.91 8.26 88 1021.6
20260502041155 65 71 0.0 0.9 0.00 5.91 8.26 88 1021.8
20260502040655 65 67 0.0 0.9 0.00 5.91 8.26 88 1021.6
20260502040155 65 55 0.0 0.9 0.00 5.91 8.26 88 1021.6
20260502035155 65 67 1.7 2.6 0.00 5.91 8.26 88 1021.8
20260502034655 65 76 2.6 3.5 0.00 5.91 8.26 87 1021.5
20260502034155 65 88 1.7 2.6 0.00 5.91 8.26 87 1021.5
20260502033655 65 82 2.6 3.5 0.00 5.91 8.26 86 1021.7
20260502033155 65 70 1.7 2.6 0.00 5.91 8.26 86 1021.6
20260502032655 65 65 0.9 2.6 0.00 5.91 8.26 86 1021.9
20260502032155 65 86 0.0 0.9 0.00 5.91 8.26 86 1021.8
20260502031655 65 79 0.9 1.7 0.00 5.91 8.26 86 1021.8
20260502031155 65 77 0.9 1.7 0.00 5.91 8.26 85 1021.8
20260502030655 65 84 0.9 1.7 0.00 5.91 8.26 85 1021.7
20260502030155 65 67 1.7 2.6 0.00 5.91 8.26 86 1021.9
20260502025655 65 79 0.9 1.7 0.00 5.91 8.26 86 1021.8
20260502025155 65 79 1.7 1.7 0.00 5.91 8.26 86 1021.7
20260502024655 65 82 0.9 1.7 0.00 5.91 8.26 86 1021.8
20260502024155 65 84 2.6 3.5 0.00 5.91 8.26 86 1021.8
20260502023655 65 73 0.9 1.7 0.00 5.91 8.26 86 1021.8
20260502023155 65 84 0.9 1.7 0.00 5.91 8.26 86 1021.9
20260502022655 65 101 1.7 2.6 0.00 5.91 8.26 86 1021.9
20260502022155 65 77 1.7 2.6 0.00 5.91 8.26 86 1021.4
20260502021655 65 77 0.9 0.9 0.00 5.91 8.26 86 1021.9
20260502020655 65 68 1.7 1.7 0.00 5.91 8.26 86 1022.0
20260502020155 65 66 0.0 0.9 0.00 5.91 8.26 87 1022.0
20260502015655 65 91 0.9 1.7 0.00 5.91 8.26 86 1022.0
20260502015155 65 88 1.7 3.5 0.00 5.91 8.26 86 1021.8
20260502014655 65 89 0.9 1.7 0.00 5.91 8.26 86 1021.9
20260502014155 65 94 4.3 7.8 0.00 5.91 8.26 86 1021.9
20260502013655 65 54 4.3 5.2 0.00 5.91 8.26 86 1022.0
20260502013155 65 88 3.5 5.2 0.00 5.91 8.26 86 1021.9
20260502012655 65 96 0.9 2.6 0.00 5.91 8.26 86 1022.1
20260502012155 65 59 2.6 4.3 0.00 5.91 8.26 86 1022.2
20260502011655 65 84 0.9 1.7 0.00 5.91 8.26 86 1022.1
20260502011155 65 101 2.6 4.3 0.00 5.91 8.26 86 1022.2
20260502010154 65 95 0.9 2.6 0.00 5.91 8.26 86 1022.5
20260502005655 65 92 0.9 1.7 0.00 5.91 8.26 85 1022.4
20260502005155 65 93 0.9 2.6 0.00 5.91 8.26 85 1022.4
20260502004655 65 71 0.9 1.7 0.00 5.91 8.26 85 1022.6
20260502004154 65 66 1.7 3.5 0.00 5.91 8.26 85 1022.7
20260502003655 65 92 1.7 2.6 0.00 5.91 8.26 84 1022.6
20260502003155 65 96 3.5 4.3 0.00 5.91 8.26 84 1022.7
20260502002654 65 64 2.6 4.3 0.00 5.91 8.26 84 1022.8
20260502002154 65 70 5.2 7.8 0.00 5.91 8.26 84 1023.0
20260502001654 65 87 3.5 4.3 0.00 5.91 8.26 84 1022.9
20260502001155 65 70 0.0 0.9 0.00 5.91 8.26 84 1023.1
20260502000654 65 79 0.0 0.9 0.00 5.91 8.26 84 1023.1
20260502000154 65 71 2.6 4.3 0.00 5.91 8.26 84 1023.3
20260501235654 65 81 1.7 1.7 0.00 5.91 8.26 84 1023.2
20260501235154 65 69 3.5 5.2 0.00 5.91 8.26 84 1023.2
20260501234654 65 71 0.9 1.7 0.00 5.91 8.26 84 1023.3
20260501234154 65 75 2.6 3.5 0.00 5.91 8.26 84 1023.2
20260501233654 66 78 4.3 7.0 0.00 5.91 8.26 85 1023.5
20260501233154 66 77 4.3 7.8 0.00 5.91 8.26 85 1023.4
20260501232654 66 85 1.7 1.7 0.00 5.91 8.26 85 1023.3
20260501232155 66 90 2.6 3.5 0.00 5.91 8.26 85 1023.3
20260501231154 66 85 0.0 0.9 0.00 5.91 8.26 85 1023.2
20260501230654 65 82 0.0 0.9 0.00 5.91 8.26 85 1023.3
20260501230154 65 73 6.1 9.6 0.00 5.91 8.26 86 1023.4
20260501225654 66 65 5.2 8.7 0.00 5.91 8.26 86 1023.4
20260501225154 66 78 0.9 1.7 0.00 5.91 8.26 86 1023.3
20260501224654 66 95 2.6 3.5 0.00 5.91 8.26 86 1023.2